Regional Weather Roundup
Issued by NWS Charleston, SC

Current Version | Previous Version | Graphics & Text | Print | Product List | Glossary On
Versions: 1 2 3 4 5 6 7 8 9 10 11 12 13 14 15 16 17 18 19 20 21 22 23 24 25 26 27 28 29 30 31 32 33 34 35 36 37 38 39 40 41 42 43 44 45 46 47 48 49 50
000
ASUS42 KCHS 010210
RWRCHS

REGIONAL WEATHER ROUNDUP
NATIONAL WEATHER SERVICE CHARLESTON SC
1000 PM EDT SUN AUG 31 2014

NOTE: "FAIR" INDICATES FEW OR NO CLOUDS BELOW 12,000 FEET WITH NO
SIGNIFICANT WEATHER AND/OR OBSTRUCTIONS TO VISIBILITY.

NOT ALL STATIONS ARE QUALITY CONTROLLED BY THE NATIONAL
WEATHER SERVICE. USE DATA WITH CAUTION...ESPECIALLY
DEWPOINT OBSERVATIONS.

SCZ027-030-031-034>040-042>050-010300-
...SOUTH CAROLINA...

CITY           SKY/WX    TMP DP  RH WIND       PRES   REMARKS
N CHARLESTON   MOCLDY    82  75  79 S3        30.12S
WATERFRONT PRK   N/A     82 N/A N/A CALM        N/A
FORT JOHNSON   NOT AVBL
MOUNT PLEASANT FAIR      79  75  89 CALM      30.12S
JOHNS ISLAND   CLEAR     79  79 100 CALM      30.13R
PINOPOLIS        N/A     84  75  74 S2        30.05R HX  92
MONCKS CORNER    N/A     81  77  89 SE3       30.12F
SUMMERVILLE    FAIR      79  77  94 CALM      30.13S
BEAUFORT MCAS  PTCLDY    81  76  84 SW3       30.11F
BEAUFORT ARPT  FAIR      81  77  89 CALM      30.11S
HILTON HEAD IS PTCLDY    81  77  89 CALM      30.13S
GEORGETOWN     NOT AVBL
WALTERBORO     CLOUDY    79 N/A N/A CALM      30.13S
ORANGEBURG     LGT RAIN  77  71  82 S6        30.12F
BARNWELL       DRIZZLE   75  75 100 NE6       30.12S
AIKEN          FAIR      75  75 100 CALM      30.15S
MANNING        FAIR      81  73  78 SW7       30.12S
KINGSTREE      NOT AVBL
COLUMBIA       CLOUDY    79  74  84 CALM      30.10S
SUMTER         LGT RAIN  76  75  96 S9        30.09F
FLORENCE       MOCLDY    82  73  74 S8        30.11R
MYRTLE BEACH   PTCLDY    82  73  74 S8        30.12R
N MYRTLE BEACH MOCLDY    82  74  76 S10       30.12R

$$

GAZ063-065-086>088-099>101-113>116-118-119-134-136>141-150-010300-
...GEORGIA...

CITY           SKY/WX    TMP DP  RH WIND       PRES   REMARKS
SAVANNAH ARPT  MOCLDY    81  74  79 S5        30.12R
HUNTER AAF     PTCLDY    79  75  89 CALM      30.10S
FORT STEWART   CLOUDY    78  71  78 CALM      30.11F
STATESBORO     NOT AVBL
SYLVANIA       LGT RAIN  73  73 100 S3        30.12F
CLAXTON        NOT AVBL
THOMSON        MOCLDY    80  76  89 CALM      30.16S
AUGUSTA-BUSH   CLOUDY    74  73  97 CALM      30.11R
AUGUSTA-DANIEL CLOUDY    77  73  87 SE5       30.13R
SWAINSBORO     FAIR      79  79 100 CALM      30.13S
VIDALIA          N/A     75  75 100 E5        30.12R
ALMA           CLOUDY    75  73  93 S7        30.12R
WAYCROSS       LGT RAIN  78  77  97 E9        30.13R
JESUP          LGT RAIN  77  75  94 CALM      30.14S
BRUNSWICK      PTCLDY    82  73  74 S5        30.12R
SAINT SIMONS   PTCLDY    83  74  74 S7        30.11R

$$

SCZ027-028-034-036>038-045-046-048>050-GAZ119-141-010300-
...LAKE AND SUPPLEMENTAL COASTAL OBSERVATIONS...

STATION/POSITION TIME  TEMP    WIND        PRES    WAVE   SWELL
                       AIR SEA DIR/SP/G            HT/PER HT/PER/DIR
                 (UTC) (F)     (DEG/KT/KT) (MB)    (FT/S) (FT/S/D)
UPR LAKE MARION  NOT AVBL
WINYAH BAY       0100   81     180/  4     1019.0S
LAKE MURRAY      0100   82     100/  2/  8 1019.0R
ACE BASIN NERRS  0100   81        CALM     1019.0S
FORT PULASKI     0200   82     260/  2/  4 1020.2S
SAPELO ISLAND    NOT AVBL

$$

ANZ835-935-AMZ111-154-330-350-352-354-374-450-454-472-010300-
...C-MAN AND BUOY OBSERVATIONS...

STATION/POSITION TIME  TEMP    WIND        PRES    WAVE   SWELL
                       AIR SEA DIR/SP/G            HT/PER HT/PER/DIR
                 (UTC) (F)     (DEG/KT/KT) (MB)    (FT/S) (FT/S/D)
FOLLY BEACH CMAN 0100   83     210/  7/  8 1020.3R
BUOY 41004       0200   82 83  220/  8/  8 1019.7R   2/ 8   2/ 8
BUOY 41008       0200   83 85  180/ 10/ 12 1019.7R   2/ 8   2/110/ 8
5E ST. MARYS GA  0200      84                N/A     3/ 9
FRYING PAN BUOY  NOT AVBL
BUOY 41025       0200   79     190/ 19/ 21 1020.0R   4/ 9   3/120/ 9
CAPE LOOKOUT NC  0100   82     200/  8/  9 1019.8R
BUOY 41002       0138   81 84  170/  6/ 10 1021.8    3/ 9   3/120/ 9
BUOY 41010       0200   83 84  140/  8/ 10 1020.5R   3/ 8   3/ 90/ 8
BUOY 41012       NOT AVBL
ST AUGUSTINE FL  0200   83     170/ 10/ 11 1020.8R
CAPERS NEARSHORE 0100   82     210/  8/ 10   N/A
FRIPP NEARSHORE  NOT AVBL


$$


USA.gov is the U.S. government's official web portal to all federal, state and local government web resources and services.